Time,TemperatureF,DewpointF,PressureIn,WindDirection,WindDirectionDegrees,WindSpeedMPH,WindSpeedGustMPH,Humidity,HourlyPrecipIn,Conditions,Clouds,dailyrainin,SoftwareType,DateUTC
2013-06-28 00:04:00,77.0,70.0,29.91,West,270,2.0,2.9,79,0.00,,,0.00,WUHU216HW,2013-06-28 04:04:00,
2013-06-28 00:09:00,76.9,70.2,29.91,NNE,23,0.7,3.4,80,0.00,,,0.00,WUHU216HW,2013-06-28 04:09:00,
2013-06-28 00:14:00,76.7,70.0,29.91,West,270,0.4,3.4,80,0.00,,,0.00,WUHU216HW,2013-06-28 04:14:00,
2013-06-28 00:19:00,76.7,70.0,29.91,NNW,338,1.1,2.7,80,0.00,,,0.00,WUHU216HW,2013-06-28 04:19:00,
2013-06-28 00:24:00,76.7,70.0,29.90,SSW,203,2.0,2.5,80,0.00,,,0.00,WUHU216HW,2013-06-28 04:24:00,
2013-06-28 00:29:00,76.7,70.0,29.91,South,180,2.5,2.5,80,0.00,,,0.00,WUHU216HW,2013-06-28 04:29:00,
2013-06-28 00:34:00,76.7,70.0,29.90,WSW,248,2.2,2.5,80,0.00,,,0.00,WUHU216HW,2013-06-28 04:34:00,
2013-06-28 00:39:00,76.7,70.4,29.90,West,270,2.2,2.2,81,0.00,,,0.00,WUHU216HW,2013-06-28 04:39:00,
2013-06-28 00:44:00,76.7,70.4,29.90,SW,225,0.0,2.2,81,0.00,,,0.00,WUHU216HW,2013-06-28 04:44:00,
2013-06-28 00:49:00,76.5,70.3,29.90,WSW,248,0.0,1.6,81,0.00,,,0.00,WUHU216HW,2013-06-28 04:49:00,
2013-06-28 00:54:00,76.5,70.3,29.90,WSW,248,0.4,1.1,81,0.00,,,0.00,WUHU216HW,2013-06-28 04:54:00,
2013-06-28 00:59:00,76.5,70.3,29.90,WSW,248,0.2,0.9,81,0.00,,,0.00,WUHU216HW,2013-06-28 04:59:00,
2013-06-28 01:04:00,76.5,70.3,29.90,WSW,248,0.7,2.5,81,0.00,,,0.00,WUHU216HW,2013-06-28 05:04:00,
2013-06-28 01:09:00,76.5,70.6,29.90,WSW,248,0.2,2.5,82,0.00,,,0.00,WUHU216HW,2013-06-28 05:09:00,
2013-06-28 01:14:00,76.3,70.8,29.90,SW,225,1.8,2.0,83,0.00,,,0.00,WUHU216HW,2013-06-28 05:14:00,
2013-06-28 01:19:00,76.3,70.8,29.90,East,90,0.7,2.0,83,0.00,,,0.00,WUHU216HW,2013-06-28 05:19:00,
2013-06-28 01:24:00,76.3,70.8,29.90,SSE,158,0.4,1.1,83,0.00,,,0.00,WUHU216HW,2013-06-28 05:24:00,
2013-06-28 01:29:00,76.1,70.7,29.90,WSW,248,0.0,1.1,83,0.00,,,0.00,WUHU216HW,2013-06-28 05:29:00,
2013-06-28 01:34:00,76.1,70.7,29.90,WSW,248,0.0,0.0,83,0.00,,,0.00,WUHU216HW,2013-06-28 05:34:00,
2013-06-28 01:39:00,76.1,70.7,29.90,SSW,203,0.9,0.9,83,0.00,,,0.00,WUHU216HW,2013-06-28 05:39:00,
2013-06-28 01:44:00,76.1,70.7,29.90,SW,225,0.0,0.9,83,0.00,,,0.00,WUHU216HW,2013-06-28 05:44:00,
2013-06-28 01:49:00,76.0,70.8,29.89,SW,225,0.0,0.2,84,0.00,,,0.00,WUHU216HW,2013-06-28 05:49:00,
2013-06-28 01:54:00,76.0,70.8,29.89,WSW,248,1.1,1.1,84,0.00,,,0.00,WUHU216HW,2013-06-28 05:54:00,
2013-06-28 01:59:00,76.0,70.8,29.90,WSW,248,0.4,1.3,84,0.00,,,0.00,WUHU216HW,2013-06-28 05:59:00,
2013-06-28 02:04:00,76.1,71.3,29.89,WSW,248,1.3,2.0,85,0.00,,,0.00,WUHU216HW,2013-06-28 06:04:00,
2013-06-28 02:09:00,76.3,71.5,29.89,WSW,248,1.6,2.2,85,0.00,,,0.00,WUHU216HW,2013-06-28 06:09:00,
2013-06-28 02:14:00,76.3,71.5,29.90,West,270,0.2,2.2,85,0.00,,,0.00,WUHU216HW,2013-06-28 06:14:00,
2013-06-28 02:19:00,76.5,71.6,29.89,WSW,248,1.8,1.8,85,0.00,,,0.00,WUHU216HW,2013-06-28 06:19:00,
2013-06-28 02:24:00,76.7,71.8,29.89,West,270,1.1,1.8,85,0.00,,,0.00,WUHU216HW,2013-06-28 06:24:00,
2013-06-28 02:29:00,76.7,72.2,29.89,WSW,248,0.7,2.5,86,0.00,,,0.00,WUHU216HW,2013-06-28 06:29:00,
2013-06-28 02:34:00,76.9,72.0,29.88,West,270,2.0,2.5,85,0.00,,,0.00,WUHU216HW,2013-06-28 06:34:00,
2013-06-28 02:39:00,76.9,72.4,29.88,South,180,1.6,2.2,86,0.00,,,0.00,WUHU216HW,2013-06-28 06:39:00,
2013-06-28 02:44:00,77.0,72.5,29.88,WSW,248,1.1,3.1,86,0.00,,,0.00,WUHU216HW,2013-06-28 06:44:00,
2013-06-28 02:49:00,76.9,72.4,29.87,SSW,203,1.8,3.1,86,0.00,,,0.00,WUHU216HW,2013-06-28 06:49:00,
2013-06-28 02:54:00,77.0,72.5,29.87,WSW,248,1.1,1.8,86,0.00,,,0.00,WUHU216HW,2013-06-28 06:54:00,
2013-06-28 02:59:00,77.0,72.5,29.87,WSW,248,1.6,2.5,86,0.00,,,0.00,WUHU216HW,2013-06-28 06:59:00,
2013-06-28 03:04:00,76.9,72.0,29.87,SW,225,1.6,2.5,85,0.00,,,0.00,WUHU216HW,2013-06-28 07:04:00,
2013-06-28 03:09:00,76.9,72.0,29.88,WSW,248,0.0,2.5,85,0.00,,,0.00,WUHU216HW,2013-06-28 07:09:00,
2013-06-28 03:14:00,77.0,72.5,29.87,West,270,0.4,2.5,86,0.00,,,0.00,WUHU216HW,2013-06-28 07:14:00,
2013-06-28 03:19:00,77.0,72.5,29.87,SE,135,0.4,1.6,86,0.00,,,0.00,WUHU216HW,2013-06-28 07:19:00,
2013-06-28 03:24:00,77.0,72.9,29.87,WSW,248,0.7,1.8,87,0.00,,,0.00,WUHU216HW,2013-06-28 07:24:00,
2013-06-28 03:30:00,77.0,72.9,29.87,West,270,0.4,1.8,87,0.00,,,0.00,WUHU216HW,2013-06-28 07:30:00,
2013-06-28 03:35:00,76.9,72.7,29.87,West,270,1.1,1.8,87,0.00,,,0.00,WUHU216HW,2013-06-28 07:35:00,
2013-06-28 03:40:00,76.9,72.4,29.87,SSW,203,2.2,2.5,86,0.00,,,0.00,WUHU216HW,2013-06-28 07:40:00,
2013-06-28 03:45:00,77.0,72.9,29.87,SW,225,1.3,2.5,87,0.00,,,0.00,WUHU216HW,2013-06-28 07:45:00,
2013-06-28 03:50:00,77.0,72.9,29.87,West,270,1.8,3.6,87,0.00,,,0.00,WUHU216HW,2013-06-28 07:50:00,
2013-06-28 03:55:00,77.0,72.9,29.87,WSW,248,2.5,3.6,87,0.00,,,0.00,WUHU216HW,2013-06-28 07:55:00,
2013-06-28 04:00:00,77.0,72.9,29.87,West,270,1.8,3.1,87,0.00,,,0.00,WUHU216HW,2013-06-28 08:00:00,
2013-06-28 04:05:00,77.0,72.9,29.87,WSW,248,2.0,2.0,87,0.00,,,0.00,WUHU216HW,2013-06-28 08:05:00,
2013-06-28 04:10:00,77.0,72.9,29.87,WSW,248,1.1,2.0,87,0.00,,,0.00,WUHU216HW,2013-06-28 08:10:00,
2013-06-28 04:15:00,76.9,72.7,29.87,WSW,248,2.0,2.2,87,0.00,,,0.00,WUHU216HW,2013-06-28 08:15:00,
2013-06-28 04:20:00,76.9,72.7,29.87,WSW,248,1.3,2.9,87,0.00,,,0.00,WUHU216HW,2013-06-28 08:20:00,
2013-06-28 04:25:00,76.7,72.5,29.87,West,270,0.4,2.9,87,0.00,,,0.00,WUHU216HW,2013-06-28 08:25:00,
2013-06-28 04:30:00,76.7,72.9,29.86,West,270,1.3,2.7,88,0.00,,,0.00,WUHU216HW,2013-06-28 08:30:00,
2013-06-28 04:35:00,76.7,72.5,29.86,WSW,248,2.0,2.7,87,0.00,,,0.00,WUHU216HW,2013-06-28 08:35:00,
2013-06-28 04:40:00,76.5,72.4,29.86,WSW,248,1.8,2.5,87,0.00,,,0.00,WUHU216HW,2013-06-28 08:40:00,
2013-06-28 04:45:00,76.5,72.7,29.87,West,270,1.3,2.2,88,0.00,,,0.00,WUHU216HW,2013-06-28 08:45:00,
2013-06-28 04:50:00,76.5,72.7,29.86,South,180,1.8,2.2,88,0.00,,,0.00,WUHU216HW,2013-06-28 08:50:00,
2013-06-28 04:55:00,76.3,72.9,29.86,WSW,248,0.9,1.8,89,0.00,,,0.00,WUHU216HW,2013-06-28 08:55:00,
2013-06-28 05:00:00,76.1,72.7,29.86,SW,225,0.7,1.3,89,0.00,,,0.00,WUHU216HW,2013-06-28 09:00:00,
2013-06-28 05:05:00,76.1,72.7,29.86,WSW,248,0.0,0.9,89,0.00,,,0.00,WUHU216HW,2013-06-28 09:05:00,
2013-06-28 05:10:00,76.1,72.7,29.86,WSW,248,1.3,1.3,89,0.00,,,0.00,WUHU216HW,2013-06-28 09:10:00,
2013-06-28 05:15:00,76.1,72.7,29.86,WSW,248,1.6,1.6,89,0.00,,,0.00,WUHU216HW,2013-06-28 09:15:00,
2013-06-28 05:20:00,76.0,72.5,29.87,West,270,0.7,1.6,89,0.00,,,0.00,WUHU216HW,2013-06-28 09:20:00,
2013-06-28 05:25:00,76.1,73.1,29.87,WSW,248,0.9,1.8,90,0.00,,,0.00,WUHU216HW,2013-06-28 09:25:00,
2013-06-28 05:30:00,76.1,73.1,29.86,WNW,293,1.3,1.8,90,0.00,,,0.00,WUHU216HW,2013-06-28 09:30:00,
2013-06-28 05:35:00,76.1,73.1,29.87,WSW,248,2.0,2.0,90,0.00,,,0.00,WUHU216HW,2013-06-28 09:35:00,
2013-06-28 05:40:00,76.3,73.3,29.87,WSW,248,1.6,2.0,90,0.00,,,0.00,WUHU216HW,2013-06-28 09:40:00,
2013-06-28 05:45:00,76.3,73.3,29.87,SSW,203,0.7,1.6,90,0.00,,,0.00,WUHU216HW,2013-06-28 09:45:00,
2013-06-28 05:50:00,76.3,73.3,29.87,WSW,248,1.1,2.5,90,0.00,,,0.00,WUHU216HW,2013-06-28 09:50:00,
2013-06-28 05:55:00,76.3,73.3,29.87,WSW,248,0.0,2.5,90,0.00,,,0.00,WUHU216HW,2013-06-28 09:55:00,
2013-06-28 06:00:00,76.3,73.3,29.86,WSW,248,0.9,2.5,90,0.00,,,0.00,WUHU216HW,2013-06-28 10:00:00,
2013-06-28 06:05:00,76.3,73.3,29.86,WSW,248,0.7,2.5,90,0.00,,,0.00,WUHU216HW,2013-06-28 10:05:00,
2013-06-28 06:10:00,76.3,73.3,29.86,WSW,248,0.9,2.5,90,0.00,,,0.00,WUHU216HW,2013-06-28 10:10:00,
2013-06-28 06:15:00,76.3,73.3,29.86,West,270,0.2,2.5,90,0.00,,,0.00,WUHU216HW,2013-06-28 10:15:00,
2013-06-28 06:20:00,76.5,73.7,29.86,West,270,1.1,2.5,91,0.00,,,0.00,WUHU216HW,2013-06-28 10:20:00,
2013-06-28 06:25:00,76.5,73.7,29.86,WSW,248,2.5,2.5,91,0.00,,,0.00,WUHU216HW,2013-06-28 10:25:00,
2013-06-28 06:30:00,76.7,73.9,29.86,West,270,0.9,2.5,91,0.00,,,0.00,WUHU216HW,2013-06-28 10:30:00,
2013-06-28 06:35:00,76.7,73.9,29.86,WSW,248,0.9,3.6,91,0.00,,,0.00,WUHU216HW,2013-06-28 10:35:00,
2013-06-28 06:40:00,76.9,74.1,29.86,WSW,248,2.5,3.6,91,0.00,,,0.00,WUHU216HW,2013-06-28 10:40:00,
2013-06-28 06:45:00,77.0,74.3,29.86,SW,225,2.5,4.3,91,0.00,,,0.00,WUHU216HW,2013-06-28 10:45:00,
2013-06-28 06:50:00,77.0,74.3,29.86,West,270,0.4,4.3,91,0.00,,,0.00,WUHU216HW,2013-06-28 10:50:00,
2013-06-28 06:55:00,77.2,74.4,29.86,WSW,248,1.1,2.7,91,0.00,,,0.00,WUHU216HW,2013-06-28 10:55:00,
2013-06-28 07:00:00,77.4,74.6,29.86,SW,225,2.5,2.7,91,0.00,,,0.00,WUHU216HW,2013-06-28 11:00:00,
2013-06-28 07:05:00,77.6,74.8,29.86,West,270,2.0,3.1,91,0.00,,,0.00,WUHU216HW,2013-06-28 11:05:00,
2013-06-28 07:10:00,77.6,74.8,29.86,WSW,248,4.7,4.7,91,0.00,,,0.00,WUHU216HW,2013-06-28 11:10:00,
2013-06-28 07:15:00,77.8,75.0,29.86,WSW,248,2.9,4.7,91,0.00,,,0.00,WUHU216HW,2013-06-28 11:15:00,
2013-06-28 07:20:00,77.8,75.0,29.86,West,270,2.2,4.7,91,0.00,,,0.00,WUHU216HW,2013-06-28 11:20:00,
2013-06-28 07:25:00,77.9,75.2,29.86,West,270,1.8,4.7,91,0.00,,,0.00,WUHU216HW,2013-06-28 11:25:00,
2013-06-28 07:30:00,78.1,75.3,29.86,WNW,293,2.5,3.4,91,0.00,,,0.00,WUHU216HW,2013-06-28 11:30:00,
2013-06-28 07:35:00,78.1,75.3,29.86,WNW,293,2.0,3.8,91,0.00,,,0.00,WUHU216HW,2013-06-28 11:35:00,
2013-06-28 07:40:00,78.1,75.3,29.86,WSW,248,2.7,4.0,91,0.00,,,0.00,WUHU216HW,2013-06-28 11:40:00,
2013-06-28 07:45:00,78.3,75.2,29.86,WSW,248,2.5,4.0,90,0.00,,,0.00,WUHU216HW,2013-06-28 11:45:00,
2013-06-28 07:50:00,78.3,75.2,29.86,West,270,4.3,4.3,90,0.00,,,0.00,WUHU216HW,2013-06-28 11:50:00,
2013-06-28 07:55:00,78.5,75.4,29.86,West,270,4.0,4.3,90,0.00,,,0.00,WUHU216HW,2013-06-28 11:55:00,
2013-06-28 08:00:00,78.5,75.4,29.86,WSW,248,1.8,4.0,90,0.00,,,0.00,WUHU216HW,2013-06-28 12:00:00,
2013-06-28 08:05:00,78.8,75.8,29.86,NNW,338,3.1,3.8,90,0.00,,,0.00,WUHU216HW,2013-06-28 12:05:00,
2013-06-28 08:10:00,79.0,75.6,29.86,SW,225,4.0,4.0,89,0.00,,,0.00,WUHU216HW,2013-06-28 12:10:00,
2013-06-28 08:15:00,79.0,75.6,29.86,NW,315,0.7,4.0,89,0.00,,,0.00,WUHU216HW,2013-06-28 12:15:00,
2013-06-28 08:20:00,79.4,75.9,29.86,WSW,248,2.5,2.5,89,0.00,,,0.00,WUHU216HW,2013-06-28 12:20:00,
2013-06-28 08:25:00,79.4,75.9,29.86,WNW,293,2.5,3.4,89,0.00,,,0.00,WUHU216HW,2013-06-28 12:25:00,
2013-06-28 08:30:00,79.6,76.1,29.86,WNW,293,1.1,3.4,89,0.00,,,0.00,WUHU216HW,2013-06-28 12:30:00,
2013-06-28 08:35:00,79.7,76.2,29.86,West,270,0.9,3.4,89,0.00,,,0.00,WUHU216HW,2013-06-28 12:35:00,
2013-06-28 08:40:00,79.9,76.4,29.87,WSW,248,1.1,2.9,89,0.00,,,0.00,WUHU216HW,2013-06-28 12:40:00,
2013-06-28 08:45:00,79.9,76.1,29.87,West,270,0.9,4.0,88,0.00,,,0.00,WUHU216HW,2013-06-28 12:45:00,
2013-06-28 08:50:00,79.9,76.1,29.87,WSW,248,2.5,4.0,88,0.00,,,0.00,WUHU216HW,2013-06-28 12:50:00,
2013-06-28 08:55:00,80.1,76.2,29.87,West,270,1.8,4.3,88,0.00,,,0.00,WUHU216HW,2013-06-28 12:55:00,
2013-06-28 09:00:00,80.3,76.4,29.87,WSW,248,2.0,4.3,88,0.00,,,0.00,WUHU216HW,2013-06-28 13:00:00,
2013-06-28 09:05:00,80.3,76.4,29.87,SW,225,1.6,4.0,88,0.00,,,0.00,WUHU216HW,2013-06-28 13:05:00,
2013-06-28 09:10:00,80.6,76.4,29.87,South,180,3.4,3.4,87,0.00,,,0.00,WUHU216HW,2013-06-28 13:10:00,
2013-06-28 09:15:00,81.0,77.0,29.87,West,270,2.0,4.0,88,0.00,,,0.00,WUHU216HW,2013-06-28 13:15:00,
2013-06-28 09:20:00,81.0,76.4,29.87,WSW,248,1.8,7.8,86,0.00,,,0.00,WUHU216HW,2013-06-28 13:20:00,
2013-06-28 09:25:00,81.4,77.1,29.87,WSW,248,3.4,7.8,87,0.00,,,0.00,WUHU216HW,2013-06-28 13:25:00,
2013-06-28 09:30:00,81.5,77.0,29.87,WSW,248,2.7,4.7,86,0.00,,,0.00,WUHU216HW,2013-06-28 13:30:00,
2013-06-28 09:35:00,81.7,77.1,29.87,West,270,3.1,4.7,86,0.00,,,0.00,WUHU216HW,2013-06-28 13:35:00,
2013-06-28 09:40:00,81.9,77.0,29.87,WSW,248,3.1,4.9,85,0.00,,,0.00,WUHU216HW,2013-06-28 13:40:00,
2013-06-28 09:45:00,82.1,77.1,29.87,WNW,293,2.5,5.4,85,0.00,,,0.00,WUHU216HW,2013-06-28 13:45:00,
2013-06-28 09:50:00,82.3,77.0,29.86,West,270,4.5,5.4,84,0.00,,,0.00,WUHU216HW,2013-06-28 13:50:00,
2013-06-28 09:55:00,82.3,77.0,29.86,West,270,3.4,5.4,84,0.00,,,0.00,WUHU216HW,2013-06-28 13:55:00,
2013-06-28 10:00:00,82.1,76.8,29.86,NNW,338,1.6,5.4,84,0.00,,,0.00,WUHU216HW,2013-06-28 14:00:00,
2013-06-28 10:05:00,82.1,77.1,29.86,West,270,1.6,4.0,85,0.00,,,0.00,WUHU216HW,2013-06-28 14:05:00,
2013-06-28 10:10:00,82.3,77.3,29.86,South,180,2.9,2.9,85,0.00,,,0.00,WUHU216HW,2013-06-28 14:10:00,
2013-06-28 10:15:00,82.4,77.5,29.86,WSW,248,3.8,3.8,85,0.00,,,0.00,WUHU216HW,2013-06-28 14:15:00,
2013-06-28 10:20:00,82.6,77.7,29.86,WNW,293,1.6,4.7,85,0.00,,,0.00,WUHU216HW,2013-06-28 14:20:00,
2013-06-28 10:25:00,83.0,77.7,29.86,SSW,203,2.5,4.7,84,0.00,,,0.00,WUHU216HW,2013-06-28 14:25:00,
2013-06-28 10:30:00,83.7,78.3,29.85,WSW,248,2.0,3.8,84,0.00,,,0.00,WUHU216HW,2013-06-28 14:30:00,
2013-06-28 10:35:00,84.1,78.3,29.85,West,270,2.5,3.4,83,0.00,,,0.00,WUHU216HW,2013-06-28 14:35:00,
2013-06-28 10:40:00,84.4,78.3,29.85,West,270,1.1,3.8,82,0.00,,,0.00,WUHU216HW,2013-06-28 14:40:00,
2013-06-28 10:45:00,84.8,78.3,29.85,SW,225,3.1,5.8,81,0.00,,,0.00,WUHU216HW,2013-06-28 14:45:00,
2013-06-28 10:50:00,85.5,79.0,29.85,SSW,203,2.5,5.8,81,0.00,,,0.00,WUHU216HW,2013-06-28 14:50:00,
2013-06-28 10:55:00,86.2,79.0,29.85,WSW,248,4.3,4.3,79,0.00,,,0.00,WUHU216HW,2013-06-28 14:55:00,
2013-06-28 11:00:00,86.9,79.8,29.85,NNW,338,1.8,6.3,79,0.00,,,0.00,WUHU216HW,2013-06-28 15:00:00,
2013-06-28 11:05:00,87.5,79.8,29.85,WNW,293,3.1,6.3,78,0.00,,,0.00,WUHU216HW,2013-06-28 15:05:00,
2013-06-28 11:10:00,87.7,79.2,29.84,WSW,248,5.8,5.8,76,0.00,,,0.00,WUHU216HW,2013-06-28 15:10:00,
2013-06-28 11:15:00,87.7,79.2,29.84,WNW,293,3.4,5.8,76,0.00,,,0.00,WUHU216HW,2013-06-28 15:15:00,
2013-06-28 11:20:00,88.2,78.8,29.85,West,270,1.1,5.4,74,0.00,,,0.00,WUHU216HW,2013-06-28 15:20:00,
2013-06-28 11:25:00,88.4,79.0,29.85,NNE,23,1.3,5.4,74,0.00,,,0.00,WUHU216HW,2013-06-28 15:25:00,
2013-06-28 11:30:00,88.7,78.9,29.84,West,270,2.5,3.8,73,0.00,,,0.00,WUHU216HW,2013-06-28 15:30:00,
2013-06-28 11:35:00,88.9,79.1,29.84,North,0,1.8,3.8,73,0.00,,,0.00,WUHU216HW,2013-06-28 15:35:00,
2013-06-28 11:40:00,88.9,78.8,29.84,WSW,248,4.0,4.0,72,0.00,,,0.00,WUHU216HW,2013-06-28 15:40:00,
2013-06-28 11:45:00,88.7,78.6,29.84,WSW,248,3.4,4.0,72,0.00,,,0.00,WUHU216HW,2013-06-28 15:45:00,
2013-06-28 11:50:00,88.6,78.9,29.83,WSW,248,4.0,5.1,73,0.00,,,0.00,WUHU216HW,2013-06-28 15:50:00,
2013-06-28 11:55:00,88.9,79.6,29.83,WSW,248,0.7,5.1,74,0.00,,,0.00,WUHU216HW,2013-06-28 15:55:00,
2013-06-28 12:00:00,89.6,80.3,29.83,West,270,2.5,2.5,74,0.00,,,0.00,WUHU216HW,2013-06-28 16:00:00,
2013-06-28 12:05:00,89.3,79.1,29.83,NNW,338,2.0,3.4,72,0.00,,,0.00,WUHU216HW,2013-06-28 16:05:00,
2013-06-28 12:10:00,89.5,79.3,29.82,WSW,248,2.5,3.4,72,0.00,,,0.00,WUHU216HW,2013-06-28 16:10:00,
2013-06-28 12:15:00,89.8,79.7,29.82,NNW,338,1.3,3.4,72,0.00,,,0.00,WUHU216HW,2013-06-28 16:15:00,
2013-06-28 12:20:00,90.7,80.0,29.82,WNW,293,2.2,4.5,71,0.00,,,0.00,WUHU216HW,2013-06-28 16:20:00,
2013-06-28 12:25:00,91.6,80.9,29.81,SE,135,0.9,4.5,71,0.00,,,0.00,WUHU216HW,2013-06-28 16:25:00,
2013-06-28 12:30:00,92.5,81.4,29.82,SSE,158,0.4,3.4,70,0.00,,,0.00,WUHU216HW,2013-06-28 16:30:00,
2013-06-28 12:35:00,92.3,79.7,29.81,SSW,203,2.2,3.4,67,0.00,,,0.00,WUHU216HW,2013-06-28 16:35:00,
2013-06-28 12:40:00,92.0,78.9,29.81,West,270,3.1,3.4,66,0.00,,,0.00,WUHU216HW,2013-06-28 16:40:00,
2013-06-28 12:45:00,92.3,80.3,29.81,NW,315,0.9,4.5,68,0.00,,,0.00,WUHU216HW,2013-06-28 16:45:00,
2013-06-28 12:50:00,92.5,79.5,29.80,SSW,203,0.0,4.5,66,0.00,,,0.00,WUHU216HW,2013-06-28 16:50:00,
2013-06-28 12:55:00,93.2,80.6,29.80,West,270,0.9,4.0,67,0.00,,,0.00,WUHU216HW,2013-06-28 16:55:00,
2013-06-28 13:00:00,94.0,81.8,29.80,West,270,5.1,5.1,68,0.00,,,0.00,WUHU216HW,2013-06-28 17:00:00,
2013-06-28 13:05:00,93.4,79.5,29.79,SW,225,0.0,5.1,64,0.00,,,0.00,WUHU216HW,2013-06-28 17:05:00,
2013-06-28 13:10:00,93.4,80.8,29.79,WSW,248,3.6,3.6,67,0.00,,,0.00,WUHU216HW,2013-06-28 17:10:00,
2013-06-28 13:15:00,94.1,81.0,29.80,WSW,248,2.5,3.6,66,0.00,,,0.00,WUHU216HW,2013-06-28 17:15:00,
2013-06-28 13:20:00,94.0,80.8,29.80,SSW,203,2.9,3.4,66,0.00,,,0.00,WUHU216HW,2013-06-28 17:20:00,
2013-06-28 13:25:00,93.2,78.9,29.80,West,270,2.5,4.3,63,0.00,,,0.00,WUHU216HW,2013-06-28 17:25:00,
2013-06-28 13:30:00,92.7,79.7,29.80,WSW,248,2.0,4.5,66,0.00,,,0.00,WUHU216HW,2013-06-28 17:30:00,
2013-06-28 13:35:00,93.2,79.3,29.80,West,270,2.7,4.5,64,0.00,,,0.00,WUHU216HW,2013-06-28 17:35:00,
2013-06-28 13:40:00,93.2,79.3,29.80,SE,135,2.5,3.4,64,0.00,,,0.00,WUHU216HW,2013-06-28 17:40:00,
2013-06-28 13:45:00,93.1,79.1,29.80,WSW,248,1.1,2.5,64,0.00,,,0.00,WUHU216HW,2013-06-28 17:45:00,
2013-06-28 13:50:00,92.9,79.8,29.81,WSW,248,1.3,2.5,66,0.00,,,0.00,WUHU216HW,2013-06-28 17:50:00,
2013-06-28 13:55:00,93.4,79.9,29.81,WSW,248,2.2,2.5,65,0.00,,,0.00,WUHU216HW,2013-06-28 17:55:00,
2013-06-28 14:00:00,94.3,81.6,29.81,WSW,248,2.5,2.5,67,0.00,,,0.00,WUHU216HW,2013-06-28 18:00:00,
2013-06-28 14:05:00,94.9,79.3,29.82,WSW,248,2.9,4.0,61,0.00,,,0.00,WUHU216HW,2013-06-28 18:05:00,
2013-06-28 14:10:00,94.7,78.7,29.82,SW,225,2.0,4.0,60,0.00,,,0.00,WUHU216HW,2013-06-28 18:10:00,
2013-06-28 14:15:00,94.0,78.5,29.82,West,270,3.8,3.8,61,0.00,,,0.00,WUHU216HW,2013-06-28 18:15:00,
2013-06-28 14:20:00,94.0,78.5,29.83,SSW,203,2.7,4.3,61,0.00,,,0.00,WUHU216HW,2013-06-28 18:20:00,
2013-06-28 14:25:00,90.4,74.6,29.85,WNW,293,9.4,9.4,60,0.00,,,0.00,WUHU216HW,2013-06-28 18:25:00,
2013-06-28 14:30:00,86.2,73.1,29.87,South,180,6.3,11.2,65,0.00,,,0.00,WUHU216HW,2013-06-28 18:30:00,
2013-06-28 14:35:00,83.5,71.4,29.86,West,270,3.1,11.2,67,0.00,,,0.00,WUHU216HW,2013-06-28 18:35:00,
2013-06-28 14:40:00,82.3,72.3,29.85,WSW,248,4.7,6.0,72,0.02,,,0.00,WUHU216HW,2013-06-28 18:40:00,
2013-06-28 14:45:00,79.9,71.3,29.86,WSW,248,8.3,8.3,75,0.15,,,0.13,WUHU216HW,2013-06-28 18:45:00,
2013-06-28 14:50:00,78.5,71.5,29.85,WNW,293,4.7,8.3,79,0.18,,,0.17,WUHU216HW,2013-06-28 18:50:00,
2013-06-28 14:55:00,77.8,71.5,29.84,SSW,203,2.7,6.3,81,0.18,,,0.18,WUHU216HW,2013-06-28 18:55:00,
2013-06-28 15:00:00,77.4,71.5,29.85,SW,225,4.9,6.3,82,0.18,,,0.18,WUHU216HW,2013-06-28 19:00:00,
2013-06-28 15:05:00,77.4,72.2,29.84,SSW,203,1.8,4.9,84,0.18,,,0.18,WUHU216HW,2013-06-28 19:05:00,
2013-06-28 15:10:00,77.8,72.5,29.83,SW,225,1.6,5.4,84,0.18,,,0.18,WUHU216HW,2013-06-28 19:10:00,
2013-06-28 15:15:00,78.5,73.3,29.84,WSW,248,4.5,5.6,84,0.18,,,0.18,WUHU216HW,2013-06-28 19:15:00,
2013-06-28 15:20:00,79.2,74.0,29.84,West,270,4.0,5.8,84,0.18,,,0.18,WUHU216HW,2013-06-28 19:20:00,
2013-06-28 15:25:00,79.4,73.8,29.84,West,270,2.5,5.8,83,0.18,,,0.18,WUHU216HW,2013-06-28 19:25:00,
2013-06-28 15:30:00,79.0,72.7,29.83,WSW,248,5.1,6.3,81,0.18,,,0.18,WUHU216HW,2013-06-28 19:30:00,
2013-06-28 15:35:00,78.8,72.9,29.82,NW,315,1.6,6.3,82,0.18,,,0.18,WUHU216HW,2013-06-28 19:35:00,
2013-06-28 15:40:00,78.8,72.9,29.83,NNW,338,4.0,4.3,82,0.05,,,0.18,WUHU216HW,2013-06-28 19:40:00,
2013-06-28 15:45:00,78.8,72.9,29.83,WSW,248,2.2,5.4,82,0.01,,,0.18,WUHU216HW,2013-06-28 19:45:00,
2013-06-28 15:50:00,78.8,72.9,29.83,SSW,203,3.8,5.4,82,0.00,,,0.18,WUHU216HW,2013-06-28 19:50:00,
2013-06-28 15:55:00,78.8,72.9,29.83,SSW,203,6.5,6.5,82,0.00,,,0.18,WUHU216HW,2013-06-28 19:55:00,
2013-06-28 16:00:00,78.8,72.9,29.83,WNW,293,6.3,6.5,82,0.00,,,0.18,WUHU216HW,2013-06-28 20:00:00,
2013-06-28 16:05:00,78.8,72.9,29.82,WNW,293,3.6,6.3,82,0.00,,,0.18,WUHU216HW,2013-06-28 20:05:00,
2013-06-28 16:10:00,78.8,72.9,29.81,NW,315,2.9,4.0,82,0.00,,,0.18,WUHU216HW,2013-06-28 20:10:00,
2013-06-28 16:16:00,78.7,72.7,29.80,WSW,248,2.5,3.4,82,0.00,,,0.18,WUHU216HW,2013-06-28 20:16:00,
2013-06-28 16:21:00,78.7,72.7,29.79,West,270,1.1,3.1,82,0.00,,,0.18,WUHU216HW,2013-06-28 20:21:00,
2013-06-28 16:26:00,78.7,72.7,29.79,WNW,293,2.0,3.1,82,0.00,,,0.18,WUHU216HW,2013-06-28 20:26:00,
2013-06-28 16:31:00,78.8,72.9,29.80,SW,225,2.5,2.5,82,0.00,,,0.18,WUHU216HW,2013-06-28 20:31:00,
2013-06-28 16:36:00,78.8,72.9,29.80,West,270,4.7,4.7,82,0.00,,,0.18,WUHU216HW,2013-06-28 20:36:00,
2013-06-28 16:41:00,78.7,72.7,29.80,WSW,248,2.0,4.7,82,0.00,,,0.18,WUHU216HW,2013-06-28 20:41:00,
2013-06-28 16:46:00,78.7,72.7,29.81,WSW,248,1.6,4.0,82,0.00,,,0.18,WUHU216HW,2013-06-28 20:46:00,
2013-06-28 16:51:00,78.5,72.5,29.81,WNW,293,1.1,3.4,82,0.00,,,0.18,WUHU216HW,2013-06-28 20:51:00,
2013-06-28 16:56:00,78.5,72.5,29.80,WSW,248,1.1,3.4,82,0.00,,,0.18,WUHU216HW,2013-06-28 20:56:00,
2013-06-28 17:01:00,78.5,72.9,29.80,NNW,338,0.7,4.0,83,0.00,,,0.18,WUHU216HW,2013-06-28 21:01:00,
2013-06-28 17:06:00,78.3,72.4,29.80,West,270,1.1,4.0,82,0.00,,,0.18,WUHU216HW,2013-06-28 21:06:00,
2013-06-28 17:11:00,78.3,72.4,29.80,North,0,0.9,4.0,82,0.00,,,0.18,WUHU216HW,2013-06-28 21:11:00,
2013-06-28 17:16:00,78.1,72.2,29.79,West,270,2.0,7.6,82,0.00,,,0.18,WUHU216HW,2013-06-28 21:16:00,
2013-06-28 17:21:00,77.9,72.0,29.78,NNW,338,2.5,7.6,82,0.00,,,0.18,WUHU216HW,2013-06-28 21:21:00,
2013-06-28 17:26:00,77.9,72.0,29.77,WSW,248,5.6,5.6,82,0.00,,,0.18,WUHU216HW,2013-06-28 21:26:00,
2013-06-28 17:31:00,77.8,71.5,29.76,NNW,338,2.5,5.6,81,0.00,,,0.18,WUHU216HW,2013-06-28 21:31:00,
2013-06-28 17:36:00,77.8,71.5,29.76,West,270,1.3,4.9,81,0.00,,,0.18,WUHU216HW,2013-06-28 21:36:00,
2013-06-28 17:41:00,77.6,71.6,29.76,North,0,1.3,4.9,82,0.00,,,0.18,WUHU216HW,2013-06-28 21:41:00,
2013-06-28 17:46:00,77.6,71.6,29.75,North,0,0.4,2.2,82,0.00,,,0.18,WUHU216HW,2013-06-28 21:46:00,
2013-06-28 17:51:00,77.6,71.6,29.75,SSW,203,0.4,2.0,82,0.00,,,0.18,WUHU216HW,2013-06-28 21:51:00,
2013-06-28 17:56:00,77.6,71.6,29.74,SW,225,2.5,3.4,82,0.00,,,0.18,WUHU216HW,2013-06-28 21:56:00,
2013-06-28 18:01:00,77.4,71.5,29.74,WSW,248,2.0,3.4,82,0.00,,,0.18,WUHU216HW,2013-06-28 22:01:00,
2013-06-28 18:06:00,77.4,71.5,29.74,NW,315,0.4,2.5,82,0.00,,,0.18,WUHU216HW,2013-06-28 22:06:00,
2013-06-28 18:11:00,77.4,71.8,29.74,South,180,2.7,2.7,83,0.00,,,0.18,WUHU216HW,2013-06-28 22:11:00,
2013-06-28 18:16:00,77.2,72.0,29.76,SE,135,0.4,2.7,84,0.00,,,0.18,WUHU216HW,2013-06-28 22:16:00,
2013-06-28 18:21:00,77.2,71.6,29.75,NNW,338,0.7,2.5,83,0.00,,,0.18,WUHU216HW,2013-06-28 22:21:00,
2013-06-28 18:26:00,77.0,71.8,29.75,East,90,1.1,2.5,84,0.00,,,0.18,WUHU216HW,2013-06-28 22:26:00,
2013-06-28 18:31:00,77.2,72.0,29.76,SSW,203,2.5,2.5,84,0.00,,,0.18,WUHU216HW,2013-06-28 22:31:00,
2013-06-28 18:36:00,77.0,71.8,29.76,WSW,248,3.1,3.1,84,0.00,,,0.18,WUHU216HW,2013-06-28 22:36:00,
2013-06-28 18:41:00,77.0,71.8,29.77,West,270,0.4,3.4,84,0.00,,,0.18,WUHU216HW,2013-06-28 22:41:00,
2013-06-28 18:46:00,77.2,71.6,29.77,SW,225,1.6,3.4,83,0.00,,,0.18,WUHU216HW,2013-06-28 22:46:00,
2013-06-28 18:51:00,77.2,72.0,29.77,WSW,248,1.3,1.6,84,0.00,,,0.18,WUHU216HW,2013-06-28 22:51:00,
2013-06-28 18:56:00,77.2,72.0,29.78,NW,315,0.0,1.3,84,0.00,,,0.18,WUHU216HW,2013-06-28 22:56:00,
2013-06-28 19:01:00,77.2,72.0,29.78,NW,315,0.0,1.1,84,0.00,,,0.18,WUHU216HW,2013-06-28 23:01:00,
2013-06-28 19:06:00,77.2,72.0,29.79,SSE,158,1.3,1.3,84,0.00,,,0.18,WUHU216HW,2013-06-28 23:06:00,
2013-06-28 19:11:00,77.0,72.2,29.79,East,90,0.4,1.3,85,0.00,,,0.18,WUHU216HW,2013-06-28 23:11:00,
2013-06-28 19:16:00,76.9,72.0,29.79,SW,225,1.6,1.6,85,0.00,,,0.18,WUHU216HW,2013-06-28 23:16:00,
2013-06-28 19:21:00,76.7,71.8,29.80,WSW,248,2.0,2.2,85,0.00,,,0.18,WUHU216HW,2013-06-28 23:21:00,
2013-06-28 19:26:00,76.9,72.0,29.80,WSW,248,0.7,2.5,85,0.00,,,0.18,WUHU216HW,2013-06-28 23:26:00,
2013-06-28 19:31:00,76.9,72.0,29.81,WSW,248,1.1,2.5,85,0.00,,,0.18,WUHU216HW,2013-06-28 23:31:00,
2013-06-28 19:36:00,76.7,71.8,29.81,WSW,248,1.3,2.7,85,0.00,,,0.18,WUHU216HW,2013-06-28 23:36:00,
2013-06-28 19:41:00,76.7,72.2,29.81,West,270,2.2,2.7,86,0.00,,,0.18,WUHU216HW,2013-06-28 23:41:00,
2013-06-28 19:46:00,76.5,72.0,29.82,SSW,203,1.8,2.9,86,0.00,,,0.18,WUHU216HW,2013-06-28 23:46:00,
2013-06-28 19:51:00,76.3,71.8,29.82,WNW,293,1.3,2.9,86,0.00,,,0.18,WUHU216HW,2013-06-28 23:51:00,
2013-06-28 19:56:00,76.3,72.2,29.82,WSW,248,2.7,2.7,87,0.00,,,0.18,WUHU216HW,2013-06-28 23:56:00,
2013-06-28 20:01:00,76.3,72.2,29.82,West,270,1.1,4.7,87,0.00,,,0.18,WUHU216HW,2013-06-29 00:01:00,
2013-06-28 20:06:00,76.1,72.0,29.83,West,270,2.2,4.7,87,0.00,,,0.18,WUHU216HW,2013-06-29 00:06:00,
2013-06-28 20:11:00,76.1,72.0,29.83,WSW,248,3.4,3.8,87,0.00,,,0.18,WUHU216HW,2013-06-29 00:11:00,
2013-06-28 20:16:00,76.0,71.8,29.82,WSW,248,1.3,3.8,87,0.00,,,0.18,WUHU216HW,2013-06-29 00:16:00,
2013-06-28 20:21:00,76.0,71.8,29.82,WSW,248,3.8,4.0,87,0.00,,,0.18,WUHU216HW,2013-06-29 00:21:00,
2013-06-28 20:26:00,76.0,71.8,29.82,WSW,248,1.3,4.0,87,0.00,,,0.18,WUHU216HW,2013-06-29 00:26:00,
2013-06-28 20:31:00,75.8,71.6,29.81,West,270,1.8,5.1,87,0.00,,,0.18,WUHU216HW,2013-06-29 00:31:00,
2013-06-28 20:36:00,75.8,71.6,29.81,West,270,1.8,5.1,87,0.00,,,0.18,WUHU216HW,2013-06-29 00:36:00,
2013-06-28 20:41:00,75.8,71.6,29.81,WSW,248,2.9,4.7,87,0.00,,,0.18,WUHU216HW,2013-06-29 00:41:00,
2013-06-28 20:46:00,75.6,71.5,29.80,WSW,248,1.8,3.4,87,0.00,,,0.18,WUHU216HW,2013-06-29 00:46:00,
2013-06-28 20:51:00,75.6,71.5,29.80,WSW,248,2.5,4.7,87,0.00,,,0.18,WUHU216HW,2013-06-29 00:51:00,
2013-06-28 20:56:00,75.6,71.5,29.80,SW,225,3.8,4.7,87,0.00,,,0.18,WUHU216HW,2013-06-29 00:56:00,
2013-06-28 21:01:00,75.6,71.5,29.79,SW,225,3.4,4.3,87,0.00,,,0.18,WUHU216HW,2013-06-29 01:01:00,
2013-06-28 21:06:00,75.4,71.4,29.80,West,270,2.0,4.3,87,0.00,,,0.18,WUHU216HW,2013-06-29 01:06:00,
2013-06-28 21:11:00,75.4,71.4,29.79,West,270,1.6,3.6,87,0.00,,,0.18,WUHU216HW,2013-06-29 01:11:00,
2013-06-28 21:16:00,75.4,71.4,29.80,SSW,203,2.5,6.3,87,0.00,,,0.18,WUHU216HW,2013-06-29 01:16:00,
2013-06-28 21:21:00,75.4,71.0,29.79,WSW,248,4.0,6.3,86,0.00,,,0.18,WUHU216HW,2013-06-29 01:21:00,
2013-06-28 21:26:00,75.4,71.0,29.79,SW,225,1.8,4.0,86,0.00,,,0.18,WUHU216HW,2013-06-29 01:26:00,
2013-06-28 21:31:00,75.4,71.0,29.79,West,270,1.8,2.5,86,0.00,,,0.18,WUHU216HW,2013-06-29 01:31:00,
2013-06-28 21:36:00,75.2,70.8,29.79,West,270,1.6,2.5,86,0.00,,,0.18,WUHU216HW,2013-06-29 01:36:00,
2013-06-28 21:41:00,75.2,70.8,29.78,WSW,248,1.3,2.5,86,0.00,,,0.18,WUHU216HW,2013-06-29 01:41:00,
2013-06-28 21:46:00,75.2,71.2,29.78,SW,225,0.7,2.2,87,0.00,,,0.18,WUHU216HW,2013-06-29 01:46:00,
2013-06-28 21:51:00,75.2,71.2,29.77,WSW,248,1.6,2.2,87,0.00,,,0.18,WUHU216HW,2013-06-29 01:51:00,
2013-06-28 21:56:00,75.2,71.2,29.77,WSW,248,0.0,2.5,87,0.00,,,0.18,WUHU216HW,2013-06-29 01:56:00,
2013-06-28 22:01:00,75.1,71.0,29.77,SW,225,1.8,2.5,87,0.00,,,0.18,WUHU216HW,2013-06-29 02:01:00,
2013-06-28 22:06:00,75.1,71.0,29.77,WSW,248,0.9,1.8,87,0.00,,,0.18,WUHU216HW,2013-06-29 02:06:00,
2013-06-28 22:11:00,75.1,71.0,29.77,West,270,0.4,2.5,87,0.00,,,0.18,WUHU216HW,2013-06-29 02:11:00,
2013-06-28 22:16:00,74.9,70.8,29.78,SW,225,0.9,2.5,87,0.00,,,0.18,WUHU216HW,2013-06-29 02:16:00,
2013-06-28 22:21:00,74.9,70.8,29.77,WSW,248,0.7,1.8,87,0.00,,,0.18,WUHU216HW,2013-06-29 02:21:00,
2013-06-28 22:26:00,74.9,71.1,29.77,WSW,248,1.1,1.6,88,0.00,,,0.18,WUHU216HW,2013-06-29 02:26:00,
2013-06-28 22:31:00,74.9,71.1,29.77,WSW,248,1.6,2.2,88,0.00,,,0.18,WUHU216HW,2013-06-29 02:31:00,
2013-06-28 22:36:00,74.9,71.1,29.77,WSW,248,2.2,2.2,88,0.00,,,0.18,WUHU216HW,2013-06-29 02:36:00,
2013-06-28 22:41:00,74.9,71.1,29.76,WSW,248,1.8,2.2,88,0.00,,,0.18,WUHU216HW,2013-06-29 02:41:00,
2013-06-28 22:46:00,74.7,70.9,29.76,WSW,248,0.7,3.6,88,0.00,,,0.18,WUHU216HW,2013-06-29 02:46:00,
2013-06-28 22:51:00,74.7,70.9,29.76,WSW,248,2.2,3.6,88,0.00,,,0.18,WUHU216HW,2013-06-29 02:51:00,
2013-06-28 22:56:00,74.7,70.9,29.77,West,270,1.6,2.2,88,0.00,,,0.18,WUHU216HW,2013-06-29 02:56:00,
2013-06-28 23:01:00,74.7,70.9,29.76,SW,225,1.6,1.8,88,0.00,,,0.18,WUHU216HW,2013-06-29 03:01:00,
2013-06-28 23:06:00,74.7,70.9,29.76,West,270,1.1,2.5,88,0.00,,,0.18,WUHU216HW,2013-06-29 03:06:00,
2013-06-28 23:11:00,74.7,70.9,29.76,WSW,248,0.4,2.5,88,0.00,,,0.18,WUHU216HW,2013-06-29 03:11:00,
2013-06-28 23:16:00,74.7,70.9,29.76,West,270,0.7,2.0,88,0.00,,,0.18,WUHU216HW,2013-06-29 03:16:00,
2013-06-28 23:21:00,74.7,70.9,29.76,WSW,248,0.4,1.6,88,0.00,,,0.18,WUHU216HW,2013-06-29 03:21:00,
2013-06-28 23:26:00,74.7,70.9,29.76,West,270,0.7,1.1,88,0.00,,,0.18,WUHU216HW,2013-06-29 03:26:00,
2013-06-28 23:31:00,74.7,70.9,29.76,West,270,0.0,1.1,88,0.00,,,0.18,WUHU216HW,2013-06-29 03:31:00,
2013-06-28 23:36:00,74.7,70.7,29.76,WSW,248,1.1,1.1,87,0.00,,,0.18,WUHU216HW,2013-06-29 03:36:00,
2013-06-28 23:41:00,74.7,70.7,29.76,WSW,248,1.3,2.5,87,0.00,,,0.18,WUHU216HW,2013-06-29 03:41:00,
2013-06-28 23:46:00,74.5,70.5,29.76,West,270,1.3,2.5,87,0.00,,,0.18,WUHU216HW,2013-06-29 03:46:00,
2013-06-28 23:51:00,74.7,70.7,29.76,SW,225,0.4,2.2,87,0.00,,,0.18,WUHU216HW,2013-06-29 03:51:00,
2013-06-28 23:56:00,74.7,70.7,29.76,South,180,1.8,2.5,87,0.00,,,0.18,WUHU216HW,2013-06-29 03:56:00,